Torna al catalogo

ANNA 1B

AttivoScienzaLEO
NORAD 446·PAYLOAD·🇺🇸 United States

Lanciato Oct 31, 1962 da Cape Canaveral Space Force Station

Loading…

Prossimi Passaggi (prossime 24 ore)

TLE

AggiornatoSource: Space-Track

Epoca: Sep 6, 2026, 17:20 UTC

1 00446U 62060A   26249.72276556 -.00000114  00000-0  22278-4 0  9993
2 00446  50.1418  60.4567 0069967 257.4497 115.9264 13.35365746114601

Traccia ANNA 1B in tempo reale con AllMySat

Download on the App Store